Tracking 23885 objects as of 28-Nov-2021
HD Live streaming from Space Station
objects crossing your sky now

ONEWEB-0377

Track ONEWEB-0377 now!
10-day predictions
ONEWEB-0377 is classified as:


NORAD ID: 49303
Int'l Code: 2021-090AA
Perigee: 602.5 km
Apogee: 617.9 km
Inclination: 87.2 °
Period: 96.8 minutes
Semi major axis: 6981 km
RCS: Unknown
Launch date: October 14, 2021
Source: United Kingdom (UK)
Launch site: VOSTOCHNY COSMODROME (VOSTO)
aabbcc
Your satellite tracking list
Your tracking list is empty




NASA's NSSDC Master Catalog

Two Line Element Set (TLE):
1 49303U 21090AA  21332.25002315  .00054669  00000-0  58586-2 0  9994
2 49303  87.2012 277.7798 0011018 121.1898 290.4486 14.88357536  8066
Source of the keplerian elements: AFSPC